Albion, NE

6:24 PM CDT on May 23, 2018 (GMT -0500)
Albion Municipal

Weather History for KBVN - January, 2013

Change the Weather History Date:

Saturday, January 5, 2013

  Actual Average (KOFK) Record (KOFK)
Temperature  
Mean Temperature 24 °F -  
Max Temperature 41 °F 28 °F 70 °F (2012)
Min Temperature 8 °F 9 °F -32 °F (1924)
Degree Days  
Heating Degree Days 40    
Moisture  
Dew Point 17 °F    
Average Humidity 72    
Maximum Humidity 87    
Minimum Humidity 54    
Precipitation  
Precipitation 0.00 in - - ()
Sea Level Pressure  
Sea Level Pressure 30.05 in    
Wind  
Wind Speed 8 mph (NW)    
Max Wind Speed 29 mph    
Max Gust Speed 37 mph    
Visibility 10 miles    
Events      
Averages and records for this station are not official NWS values.
T = Trace of Precipitation, MM = Missing Value Source: NWS Daily Summary

Daily Weather History Graph

Daily Weather History Graph

Search for Another Location

Airport or City:

Astronomy

Jan. 05, 2013 Rise Set
Actual Time 7:59 AM CST 5:16 PM CST
Civil Twilight 7:28 AM CST 5:47 PM CST
Nautical Twilight 6:53 AM CST 6:22 PM CST
Astronomical Twilight 6:19 AM CST 6:56 PM CST
Moon 1:04 AM CST (1/5) 12:09 PM CST (1/5)
Length of Visible Light 10h 19m
Length of Day
9h 16m
Last Quarter, 44% of the Moon is Illuminated
Jan 5
Last Quarter
Jan 11
New
Jan 18
First Quarter
Jan 26
Full
Feb 3
Last Quarter

Hourly Weather History & Observations

Time (CST) Temp. Windchill Dew Point Humidity Pressure Visibility Wind Dir Wind Speed Gust Speed Precip Events Conditions
12:15 AM 14.7 °F 5.9 °F 9.9 °F 81% 30.03 in 10.0 mi SSE 5.8 mph - N/A   Clear
12:35 AM 16.9 °F 11.5 °F 12.0 °F 81% 30.02 in 10.0 mi SE 3.5 mph - N/A   Clear
12:55 AM 16.5 °F - 10.8 °F 78% 30.02 in 10.0 mi Calm Calm - N/A   Clear
1:15 AM 17.6 °F - 12.0 °F 79% 30.00 in 10.0 mi Calm Calm - N/A   Clear
1:35 AM 15.6 °F - 10.4 °F 80% 30.01 in 10.0 mi Calm Calm - N/A   Scattered Clouds
1:55 AM 16.5 °F 11.0 °F 10.9 °F 79% 30.01 in 10.0 mi SSE 3.5 mph - N/A   Clear
2:15 AM 16.3 °F - 10.8 °F 79% 30.01 in 10.0 mi Calm Calm - N/A   Clear
2:35 AM 17.8 °F - 12.0 °F 78% 30.01 in 10.0 mi Calm Calm - N/A   Clear
2:55 AM 17.4 °F - 11.1 °F 76% 30.01 in 10.0 mi Calm Calm - N/A   Clear
3:15 AM 15.8 °F - 10.9 °F 81% 30.00 in 10.0 mi Calm Calm - N/A   Clear
3:35 AM 15.8 °F 10.2 °F 10.9 °F 81% 29.99 in 10.0 mi SE 3.5 mph - N/A   Clear
3:55 AM 14.7 °F - 10.4 °F 83% 29.99 in 10.0 mi Calm Calm - N/A   Clear
4:15 AM 14.0 °F - 10.0 °F 84% 29.99 in 10.0 mi Calm Calm - N/A   Clear
4:35 AM 11.1 °F 3.1 °F 7.3 °F 85% 29.99 in 10.0 mi SE 4.6 mph - N/A   Clear
4:55 AM 12.7 °F 6.7 °F 9.0 °F 85% 29.98 in 10.0 mi SSE 3.5 mph - N/A   Clear
5:15 AM 13.8 °F - 10.0 °F 85% 29.97 in 10.0 mi Calm Calm - N/A   Clear
5:35 AM 15.8 °F 1.4 °F 10.9 °F 81% 29.98 in 10.0 mi NNW 13.8 mph - N/A   Clear
5:55 AM 15.1 °F 3.3 °F 10.4 °F 82% 29.97 in 10.0 mi NNW 9.2 mph - N/A   Clear
6:15 AM 14.0 °F 5.1 °F 9.7 °F 83% 29.97 in 10.0 mi NNW 5.8 mph - N/A   Clear
6:35 AM 12.0 °F - 7.9 °F 83% 29.97 in 10.0 mi Calm Calm - N/A   Clear
7:15 AM 9.5 °F - 5.9 °F 85% 29.98 in 10.0 mi Calm Calm - N/A   Clear
7:35 AM 8.4 °F - 4.8 °F 85% 29.99 in 10.0 mi Calm Calm - N/A   Clear
7:55 AM 8.6 °F - 5.5 °F 87% 29.99 in 10.0 mi Calm Calm - N/A   Clear
8:15 AM 12.2 °F 1.7 °F 8.6 °F 85% 30.00 in 10.0 mi NW 6.9 mph - N/A   Clear
8:35 AM 16.7 °F 4.5 °F 11.5 °F 80% 29.99 in 10.0 mi NNW 10.4 mph - N/A   Clear
8:55 AM 20.7 °F 9.5 °F 13.6 °F 74% 29.99 in 10.0 mi NNW 10.4 mph - N/A   Clear
9:15 AM 19.6 °F 8.1 °F 14.0 °F 79% 30.01 in 10.0 mi NNW 10.4 mph - N/A   Clear
9:55 AM 27.1 °F 18.9 °F 16.7 °F 65% 30.01 in 10.0 mi NW 8.1 mph - N/A   Clear
10:15 AM 28.6 °F 18.7 °F 17.1 °F 62% 30.01 in 10.0 mi NW 11.5 mph - N/A   Clear
10:55 AM 29.8 °F 19.8 °F 17.8 °F 61% 30.01 in 10.0 mi NNW 12.7 mph - N/A   Clear
11:15 AM 31.6 °F 22.6 °F 19.8 °F 62% 30.01 in 10.0 mi NW 11.5 mph - N/A   Clear
11:35 AM 33.3 °F 23.2 °F 21.4 °F 62% 30.01 in 10.0 mi NW 15.0 mph - N/A   Clear
11:55 AM 36.0 °F 26.3 °F 23.4 °F 60% 30.01 in 10.0 mi NW 16.1 mph - N/A   Clear
12:15 PM 38.3 °F 30.1 °F 24.8 °F 58% 30.00 in 10.0 mi NNW 13.8 mph 21.9 mph N/A   Clear
12:35 PM 39.6 °F 30.3 °F 25.3 °F 57% 30.00 in 10.0 mi NW 18.4 mph 25.3 mph N/A   Clear
12:55 PM 39.6 °F 30.0 °F 25.2 °F 56% 30.00 in 10.0 mi NW 19.6 mph 25.3 mph N/A   Clear
1:15 PM 40.3 °F 31.3 °F 25.3 °F 55% 30.00 in 10.0 mi NNW 18.4 mph 27.6 mph N/A   Clear
1:35 PM 41.0 °F 32.2 °F 25.5 °F 54% 29.99 in 10.0 mi NNW 18.4 mph - N/A   Clear
1:55 PM 40.8 °F 32.6 °F 25.7 °F 55% 29.99 in 10.0 mi NW 16.1 mph 26.5 mph N/A   Clear
2:15 PM 41.4 °F 34.3 °F 26.6 °F 56% 29.99 in 10.0 mi NW 12.7 mph 21.9 mph N/A   Clear
2:35 PM 41.7 °F 33.4 °F 26.8 °F 55% 30.00 in 10.0 mi NW 17.3 mph 24.2 mph N/A   Clear
2:55 PM 41.4 °F 33.3 °F 26.8 °F 56% 30.00 in 10.0 mi NW 16.1 mph - N/A   Clear
3:15 PM 41.2 °F 33.7 °F 26.6 °F 56% 30.00 in 10.0 mi NW 13.8 mph - N/A   Clear
3:35 PM 41.0 °F 33.5 °F 27.3 °F 58% 30.01 in 10.0 mi NW 13.8 mph 20.7 mph N/A   Clear
3:55 PM 40.3 °F 31.6 °F 26.2 °F 57% 30.02 in 10.0 mi NW 17.3 mph 21.9 mph N/A   Clear
4:15 PM 39.4 °F 31.1 °F 25.5 °F 58% 30.03 in 10.0 mi NW 15.0 mph 24.2 mph N/A   Clear
4:55 PM 37.2 °F 27.9 °F 25.0 °F 61% 30.04 in 10.0 mi NW 16.1 mph 21.9 mph N/A   Clear
5:15 PM 36.1 °F 26.2 °F 24.3 °F 62% 30.05 in 10.0 mi NW 17.3 mph 23.0 mph N/A   Clear
5:35 PM 35.6 °F 24.5 °F 22.8 °F 60% 30.06 in 10.0 mi NW 20.7 mph 27.6 mph N/A   Clear
5:55 PM 34.5 °F 24.8 °F 23.2 °F 63% 30.07 in 10.0 mi NW 15.0 mph 26.5 mph N/A   Clear
6:15 PM 32.4 °F 22.5 °F 23.9 °F 71% 30.09 in 10.0 mi NW 13.8 mph - N/A   Clear
6:35 PM 32.9 °F 20.1 °F 23.0 °F 67% 30.10 in 10.0 mi NW 24.2 mph 31.1 mph N/A   Clear
6:55 PM 32.0 °F 20.8 °F 22.8 °F 69% 30.12 in 10.0 mi NW 17.3 mph 26.5 mph N/A   Scattered Clouds
7:15 PM 30.6 °F 18.2 °F 22.3 °F 71% 30.12 in 10.0 mi NW 19.6 mph 25.3 mph N/A   Scattered Clouds
7:55 PM 28.2 °F 14.5 °F 20.8 °F 74% 30.15 in 10.0 mi NNW 21.9 mph 28.8 mph N/A   Clear
8:15 PM 27.0 °F 11.0 °F 19.6 °F 74% 30.15 in 10.0 mi NW 28.8 mph 36.8 mph N/A   Clear
8:35 PM 26.1 °F 12.7 °F 19.2 °F 75% 30.16 in 10.0 mi NW 18.4 mph 25.3 mph N/A   Mostly Cloudy
8:55 PM 25.0 °F 12.6 °F 19.0 °F 78% 30.17 in 10.0 mi NW 15.0 mph 21.9 mph N/A   Scattered Clouds
9:15 PM 24.4 °F 11.9 °F 18.5 °F 78% 30.18 in 10.0 mi NNW 15.0 mph 19.6 mph N/A   Clear
9:35 PM 23.9 °F 12.3 °F 18.1 °F 79% 30.19 in 10.0 mi NNW 12.7 mph 24.2 mph N/A   Clear
9:55 PM 23.0 °F 11.1 °F 17.4 °F 79% 30.19 in 10.0 mi NNW 12.7 mph - N/A   Clear
10:15 PM 22.3 °F 10.8 °F 17.1 °F 80% 30.20 in 10.0 mi NNW 11.5 mph 18.4 mph N/A   Clear
10:35 PM 21.2 °F 9.5 °F 16.3 °F 82% 30.20 in 10.0 mi NW 11.5 mph - N/A   Clear
10:55 PM 20.8 °F 8.4 °F 16.2 °F 82% 30.21 in 10.0 mi NW 12.7 mph 17.3 mph N/A   Clear
11:15 PM 20.3 °F 8.3 °F 15.8 °F 83% 30.21 in 10.0 mi NW 11.5 mph - N/A   Clear
11:35 PM 19.9 °F 7.9 °F 15.4 °F 83% 30.21 in 10.0 mi NW 11.5 mph - N/A   Clear
11:55 PM 19.9 °F 7.9 °F 15.4 °F 83% 30.22 in 10.0 mi NNW 11.5 mph - N/A   Clear